Weather History for LHKE - September, 2012

Change the Weather History Date:

Sunday, September 16, 2012

  Actual Average (LHBP) Record (LHBP)
Temperature  
Mean Temperature 60 °F -  
Max Temperature 71 °F 68 °F 78 °F (1999)
Min Temperature 50 °F 48 °F 39 °F (2007)
Degree Days  
Heating Degree Days 4    
Growing Degree Days 10 (Base 50)    
Moisture  
Dew Point 47 °F    
Average Humidity 64    
Maximum Humidity 94    
Minimum Humidity 33    
Precipitation  
Precipitation 0.00 in - - ()
Sea Level Pressure  
Sea Level Pressure 30.06 in    
Wind  
Wind Speed 5 mph ()    
Max Wind Speed 13 mph    
Max Gust Speed -    
Visibility 5.4 miles    
Events      
Averages and records for this station are not official NWS values.
T = Trace of Precipitation, MM = Missing Value Source: Averaged Metar Reports

Daily Weather History Graph

Daily Weather History Graph

Search for Another Location

Airport or City:

Trip Planner

Search our weather history database for the weather conditions in past years. The results will help you decide how hot, cold, wet, or windy it might be!

Date:

Astronomy

Sep. 16, 2012 Rise Set
Actual Time 6:20 AM CEST 6:50 PM CEST
Civil Twilight 5:49 AM CEST 7:20 PM CEST
Nautical Twilight 5:13 AM CEST 7:56 PM CEST
Astronomical Twilight 4:35 AM CEST 8:34 PM CEST
Moon 6:43 AM CEST (9/16) 6:37 PM CEST (9/16)
Length of Visible Light 13h 31m
Length of Day
12h 30m
New Moon, 0% of the Moon is Illuminated
Sep 16
New Moon
Sep 22
First Quarter
Sep 30
Full
Oct 8
Last Quarter
Oct 15
New

Hourly Weather History & Observations

Time (CEST) Temp. Dew Point Humidity Pressure Visibility Wind Dir Wind Speed Gust Speed Precip Events Conditions
12:15 AM 50.0 °F 48.2 °F 94% 30.04 in - WNW 2.2 mph - N/A   Clear
12:45 AM 50.0 °F 46.4 °F 87% 30.04 in - WNW 4.5 mph - N/A   Clear
1:15 AM 50.0 °F 48.2 °F 94% 30.04 in - WNW 4.5 mph - N/A   Clear
1:45 AM 51.8 °F 48.2 °F 88% 30.04 in - WNW 4.5 mph - N/A   Clear
2:15 AM 51.8 °F 50.0 °F 94% 30.04 in - Calm Calm - N/A   Clear
2:45 AM 53.6 °F 48.2 °F 82% 30.04 in - NNW 2.2 mph - N/A   Clear
3:15 AM 53.6 °F 50.0 °F 88% 30.04 in - North 2.2 mph - N/A   Clear
3:45 AM - - N/A% - 6.2 mi Variable 4.5 mph - N/A   Clear
4:15 AM 53.6 °F 50.0 °F 88% 30.04 in - North 2.2 mph - N/A   Clear
4:45 AM 53.6 °F 50.0 °F 88% 30.06 in - North 2.2 mph - N/A   Clear
5:15 AM 53.6 °F 50.0 °F 88% 30.06 in - NNW 4.5 mph - N/A   Clear
5:45 AM 53.6 °F 50.0 °F 88% 30.06 in - NNW 2.2 mph - N/A   Clear
6:45 AM - - N/A% - 6.2 mi Variable 4.5 mph - N/A   Clear
7:15 AM 55.4 °F 51.8 °F 88% 30.06 in - NNW 2.2 mph - N/A   Clear
7:45 AM 57.2 °F 51.8 °F 82% 30.06 in - North 2.2 mph - N/A   Clear
8:15 AM 60.8 °F 50.0 °F 68% 30.06 in - ENE 11.2 mph - N/A   Clear
8:45 AM 62.6 °F 50.0 °F 63% 30.09 in - ENE 8.9 mph - N/A   Clear
9:15 AM 62.6 °F 48.2 °F 59% 30.09 in - ENE 13.4 mph - N/A   Clear
9:45 AM - - N/A% - - NE 11.2 mph - N/A   Clear
10:15 AM 66.2 °F 46.4 °F 49% 30.09 in - ENE 11.2 mph - N/A   Clear
10:45 AM 66.2 °F 46.4 °F 49% 30.09 in 6.2 mi ENE 13.4 mph - N/A   Partly Cloudy
11:15 AM 66.2 °F 44.6 °F 46% 30.09 in - ENE 13.4 mph - N/A   Clear
11:45 AM 68.0 °F 44.6 °F 43% 30.09 in - ENE 11.2 mph - N/A   Clear
12:15 PM 69.8 °F 42.8 °F 38% 30.09 in - ENE 13.4 mph - N/A   Clear
12:45 PM - - N/A% - - ENE 8.9 mph - N/A   Clear
1:15 PM 69.8 °F 42.8 °F 38% 30.06 in - NNE 13.4 mph - N/A   Clear
2:15 PM 71.6 °F 42.8 °F 35% 30.06 in - ENE 8.9 mph - N/A   Clear
2:45 PM 71.6 °F 41.0 °F 33% 30.06 in - NE 11.2 mph - N/A   Clear
3:15 PM 71.6 °F 41.0 °F 33% 30.04 in - NE 8.9 mph - N/A   Clear
3:45 PM 71.6 °F 42.8 °F 35% 30.04 in - NE 11.2 mph - N/A   Clear
4:15 PM 71.6 °F 42.8 °F 35% 30.04 in - NNE 8.9 mph - N/A   Clear
4:45 PM 71.6 °F 41.0 °F 33% 30.04 in - NE 11.2 mph - N/A   Clear
5:15 PM 69.8 °F 42.8 °F 38% 30.04 in - NE 8.9 mph - N/A   Clear
5:45 PM 69.8 °F 44.6 °F 40% 30.04 in - NE 8.9 mph - N/A   Clear
6:15 PM 68.0 °F 44.6 °F 43% 30.04 in - NNE 4.5 mph - N/A   Clear
6:45 PM 66.2 °F 44.6 °F 46% 30.04 in - NNE 4.5 mph - N/A   Clear
7:15 PM 64.4 °F 44.6 °F 49% 30.04 in - North 2.2 mph - N/A   Clear
7:45 PM 59.0 °F 48.2 °F 67% 30.06 in - North 2.2 mph - N/A   Clear
8:15 PM 59.0 °F 48.2 °F 67% 30.06 in - North 2.2 mph - N/A   Clear
8:45 PM 57.2 °F 50.0 °F 77% 30.06 in - North 2.2 mph - N/A   Clear
9:15 PM 57.2 °F 50.0 °F 77% 30.06 in - Calm Calm - N/A   Clear
9:45 PM - - N/A% - 3.1 mi NNE 4.5 mph - N/A   Clear
10:15 PM 53.6 °F 48.2 °F 82% 30.06 in - North 2.2 mph - N/A   Clear
10:45 PM 53.6 °F 48.2 °F 82% 30.06 in - North 2.2 mph - N/A   Clear
11:15 PM 53.6 °F 48.2 °F 82% 30.06 in - Calm Calm - N/A   Clear
11:45 PM 53.6 °F 48.2 °F 82% 30.06 in - North 2.2 mph - N/A   Clear